Back to catalog

FREGAT R/B

AliveHEO
NORAD 45255·ROCKET BODY·🇷🇺 Russia

Launched Feb 20, 2020 from Plesetsk Cosmodrome

Loading…

Next Passes (next 24 hours)

TLE

FreshSource: Space-Track

Epoch: Sep 13, 2026, 03:15 UTC

1 45255U 20015B   26256.13564092 -.00000570  00000-0  00000-0 0  9993
2 45255  65.6723 303.7480 6863387 277.4298  15.4890  1.99769164 47917

Track FREGAT R/B in real time with AllMySat

Download on the App Store